| time (UTC) | temp F | wind direction | speed MPH | gust MPH | rain 1hr in | rain 24hr in | rain mn in | humidity % | barometer mb |
| 20260905083204 | 57 | 201 | 1.0 | 2.0 | 0.00 | 0.00 | 0.00 | 98 | 988.6 |
| 20260905082703 | 57 | 185 | 1.0 | 2.0 | 0.00 | 0.00 | 0.00 | 98 | 988.6 |
| 20260905081704 | 57 | 176 | 2.0 | 3.0 | 0.00 | 0.00 | 0.00 | 98 | 988.6 |
| 20260905081204 | 57 | 155 | 1.0 | 2.0 | 0.00 | 0.00 | 0.00 | 98 | 988.7 |
| 20260905080703 | 57 | 134 | 1.0 | 3.0 | 0.00 | 0.00 | 0.00 | 98 | 988.6 |
| 20260905080204 | 57 | 86 | 1.0 | 2.0 | 0.00 | 0.00 | 0.00 | 98 | 988.6 |
| 20260905075704 | 57 | 209 | 1.0 | 2.0 | 0.00 | 0.00 | 0.00 | 98 | 988.6 |
| 20260905075203 | 57 | 160 | 1.0 | 2.0 | 0.00 | 0.00 | 0.00 | 98 | 988.6 |
| 20260905074703 | 57 | 119 | 1.0 | 3.0 | 0.00 | 0.00 | 0.00 | 98 | 988.5 |
| 20260905074203 | 57 | 97 | 1.0 | 2.0 | 0.00 | 0.00 | 0.00 | 98 | 988.5 |
| 20260905073703 | 57 | 75 | 1.0 | 3.0 | 0.00 | 0.00 | 0.00 | 98 | 988.5 |
| 20260905073203 | 57 | 180 | 2.0 | 3.0 | 0.00 | 0.00 | 0.00 | 98 | 988.5 |
| 20260905072703 | 57 | 155 | 1.0 | 3.0 | 0.00 | 0.00 | 0.00 | 98 | 988.5 |
| 20260905071704 | 58 | 205 | 1.0 | 2.0 | 0.00 | 0.00 | 0.00 | 98 | 988.5 |
| 20260905071203 | 58 | 192 | 1.0 | 3.0 | 0.00 | 0.00 | 0.00 | 98 | 988.6 |
| 20260905070704 | 58 | 220 | 2.0 | 3.0 | 0.00 | 0.00 | 0.00 | 98 | 988.7 |
| 20260905070203 | 58 | 195 | 1.0 | 3.0 | 0.00 | 0.00 | 0.00 | 98 | 988.7 |
| 20260905065704 | 58 | 219 | 1.0 | 2.0 | 0.00 | 0.00 | 0.00 | 98 | 988.8 |
| 20260905065203 | 58 | 43 | 2.0 | 3.0 | 0.00 | 0.00 | 0.00 | 97 | 988.8 |
| 20260905064704 | 58 | 165 | 2.0 | 3.0 | 0.00 | 0.00 | 0.00 | 97 | 988.9 |
| 20260905064203 | 58 | 150 | 1.0 | 3.0 | 0.00 | 0.00 | 0.00 | 97 | 989.0 |
| 20260905063704 | 58 | 206 | 2.0 | 3.0 | 0.00 | 0.00 | 0.00 | 97 | 989.0 |
| 20260905063204 | 58 | 67 | 2.0 | 3.0 | 0.00 | 0.00 | 0.00 | 96 | 989.0 |
| 20260905062703 | 59 | 312 | 3.0 | 3.0 | 0.00 | 0.00 | 0.00 | 96 | 989.0 |
| 20260905062204 | 59 | 311 | 3.0 | 5.0 | 0.00 | 0.00 | 0.00 | 95 | 989.0 |
| 20260905061703 | 59 | 313 | 2.0 | 3.0 | 0.00 | 0.00 | 0.00 | 96 | 989.0 |
| 20260905060703 | 59 | 311 | 2.0 | 3.0 | 0.00 | 0.00 | 0.00 | 96 | 989.1 |
| 20260905060204 | 59 | 311 | 3.0 | 3.0 | 0.00 | 0.00 | 0.00 | 95 | 989.1 |
| 20260905055703 | 59 | 328 | 2.0 | 3.0 | 0.00 | 0.00 | 0.00 | 94 | 989.1 |
| 20260905055204 | 60 | 311 | 2.0 | 3.0 | 0.00 | 0.00 | 0.00 | 94 | 989.0 |
| 20260905054204 | 59 | 312 | 2.0 | 3.0 | 0.00 | 0.00 | 0.00 | 95 | 989.0 |
| 20260905053703 | 59 | 311 | 2.0 | 3.0 | 0.00 | 0.00 | 0.00 | 95 | 988.9 |
| 20260905053203 | 59 | 312 | 2.0 | 3.0 | 0.00 | 0.00 | 0.00 | 95 | 989.0 |
| 20260905052703 | 60 | 312 | 2.0 | 3.0 | 0.00 | 0.00 | 0.00 | 93 | 989.0 |
| 20260905051703 | 60 | 312 | 2.0 | 3.0 | 0.00 | 0.00 | 0.00 | 93 | 989.0 |
| 20260905051204 | 60 | 312 | 2.0 | 3.0 | 0.00 | 0.00 | 0.00 | 93 | 989.0 |
| 20260905050704 | 60 | 312 | 2.0 | 3.0 | 0.00 | 0.00 | 0.00 | 93 | 989.0 |
| 20260905050203 | 60 | 313 | 2.0 | 3.0 | 0.00 | 0.00 | 0.00 | 93 | 989.0 |
| 20260905045704 | 60 | 312 | 2.0 | 3.0 | 0.00 | 0.00 | 0.00 | 93 | 989.0 |
| 20260905045203 | 61 | 311 | 2.0 | 3.0 | 0.00 | 0.00 | 0.00 | 92 | 989.0 |
| 20260905044703 | 61 | 310 | 4.0 | 6.0 | 0.00 | 0.00 | 0.00 | 91 | 989.1 |
| 20260905044204 | 61 | 309 | 3.0 | 6.0 | 0.00 | 0.00 | 0.00 | 92 | 989.1 |
| 20260905043703 | 60 | 310 | 4.0 | 7.0 | 0.00 | 0.00 | 0.00 | 92 | 989.2 |
| 20260905043203 | 61 | 309 | 5.0 | 7.0 | 0.00 | 0.00 | 0.00 | 91 | 989.2 |
| 20260905042703 | 61 | 309 | 5.0 | 7.0 | 0.00 | 0.00 | 0.00 | 91 | 989.2 |
| 20260905042204 | 61 | 309 | 5.0 | 7.0 | 0.00 | 0.00 | 0.00 | 90 | 989.2 |
| 20260905041203 | 62 | 310 | 5.0 | 7.0 | 0.00 | 0.00 | 0.00 | 90 | 989.3 |
| 20260905040703 | 62 | 308 | 5.0 | 6.0 | 0.00 | 0.00 | 0.00 | 89 | 989.2 |
| 20260905040203 | 62 | 309 | 5.0 | 7.0 | 0.00 | 0.00 | 0.00 | 89 | 989.3 |
| 20260905035204 | 62 | 308 | 5.0 | 7.0 | 0.00 | 0.00 | 0.00 | 89 | 989.2 |
| 20260905034203 | 63 | 309 | 5.0 | 7.0 | 0.00 | 0.00 | 0.00 | 87 | 989.2 |
| 20260905033703 | 63 | 311 | 4.0 | 5.0 | 0.00 | 0.00 | 0.00 | 87 | 989.1 |
| 20260905032704 | 63 | 310 | 3.0 | 5.0 | 0.00 | 0.00 | 0.00 | 86 | 989.0 |
| 20260905032203 | 64 | 310 | 3.0 | 5.0 | 0.00 | 0.00 | 0.00 | 85 | 988.9 |
| 20260905031704 | 64 | 311 | 4.0 | 5.0 | 0.00 | 0.00 | 0.00 | 84 | 988.8 |
| 20260905031204 | 64 | 312 | 3.0 | 5.0 | 0.00 | 0.00 | 0.00 | 85 | 988.9 |
| 20260905030703 | 64 | 308 | 3.0 | 5.0 | 0.00 | 0.00 | 0.00 | 84 | 988.9 |
| 20260905030204 | 64 | 302 | 3.0 | 5.0 | 0.00 | 0.00 | 0.00 | 83 | 989.1 |
| 20260905025703 | 64 | 303 | 3.0 | 5.0 | 0.00 | 0.00 | 0.00 | 83 | 989.2 |
| 20260905025203 | 64 | 279 | 3.0 | 5.0 | 0.00 | 0.00 | 0.00 | 82 | 989.3 |
| 20260905024704 | 64 | 288 | 3.0 | 5.0 | 0.00 | 0.00 | 0.00 | 82 | 989.3 |
| 20260905024203 | 65 | 263 | 3.0 | 7.0 | 0.00 | 0.00 | 0.00 | 82 | 989.2 |
| 20260905023203 | 65 | 259 | 3.0 | 6.0 | 0.00 | 0.00 | 0.00 | 82 | 989.2 |
| 20260905022704 | 65 | 255 | 3.0 | 9.0 | 0.00 | 0.00 | 0.00 | 82 | 989.2 |
| 20260905022203 | 65 | 238 | 7.0 | 10.0 | 0.00 | 0.00 | 0.00 | 82 | 989.3 |
| 20260905021704 | 66 | 244 | 3.0 | 9.0 | 0.00 | 0.00 | 0.00 | 81 | 989.4 |
| 20260905021204 | 66 | 233 | 5.0 | 8.0 | 0.00 | 0.00 | 0.00 | 80 | 989.3 |
| 20260905020703 | 66 | 261 | 5.0 | 12.0 | 0.00 | 0.00 | 0.00 | 80 | 989.4 |
| 20260905015203 | 66 | 275 | 3.0 | 8.0 | 0.00 | 0.00 | 0.00 | 80 | 989.4 |
| 20260905014704 | 66 | 268 | 3.0 | 10.0 | 0.00 | 0.00 | 0.00 | 80 | 989.4 |
| 20260905014203 | 66 | 303 | 6.0 | 10.0 | 0.00 | 0.00 | 0.00 | 80 | 989.4 |
| 20260905013704 | 66 | 240 | 3.0 | 9.0 | 0.00 | 0.00 | 0.00 | 81 | 989.5 |
| 20260905012703 | 67 | 298 | 5.0 | 12.0 | 0.00 | 0.00 | 0.00 | 81 | 989.6 |
| 20260905012204 | 67 | 218 | 2.0 | 7.0 | 0.00 | 0.00 | 0.00 | 82 | 989.5 |
| 20260905011703 | 67 | 246 | 2.0 | 7.0 | 0.00 | 0.00 | 0.00 | 81 | 989.5 |
| 20260905011203 | 67 | 227 | 3.0 | 12.0 | 0.00 | 0.00 | 0.00 | 81 | 989.5 |
| 20260905010704 | 67 | 268 | 7.0 | 12.0 | 0.00 | 0.00 | 0.00 | 80 | 989.5 |
| 20260905005703 | 67 | 268 | 4.0 | 9.0 | 0.00 | 0.00 | 0.00 | 81 | 989.4 |
| 20260905005204 | 67 | 260 | 3.0 | 8.0 | 0.00 | 0.00 | 0.00 | 81 | 989.5 |
| 20260905003704 | 67 | 288 | 4.0 | 7.0 | 0.00 | 0.00 | 0.00 | 81 | 989.4 |
| 20260905003203 | 68 | 276 | 3.0 | 6.0 | 0.00 | 0.00 | 0.00 | 80 | 989.4 |
| 20260905002704 | 68 | 280 | 5.0 | 7.0 | 0.00 | 0.00 | 0.00 | 80 | 989.4 |
| 20260905002204 | 68 | 284 | 3.0 | 7.0 | 0.00 | 0.00 | 0.00 | 79 | 989.3 |
| 20260905001703 | 68 | 281 | 2.0 | 8.0 | 0.00 | 0.00 | 0.00 | 79 | 989.3 |
| 20260905001204 | 68 | 288 | 3.0 | 8.0 | 0.00 | 0.00 | 0.00 | 78 | 989.2 |
| 20260905000703 | 68 | 260 | 2.0 | 8.0 | 0.00 | 0.00 | 0.00 | 78 | 989.3 |
| 20260905000204 | 69 | 247 | 4.0 | 7.0 | 0.00 | 0.00 | 0.00 | 78 | 989.2 |
| 20260904235703 | 69 | 269 | 4.0 | 8.0 | 0.00 | 0.00 | 0.00 | 76 | 989.1 |
| 20260904234703 | 69 | 329 | 2.0 | 6.0 | 0.00 | 0.00 | 0.00 | 80 | 988.9 |
| 20260904234204 | 69 | 14 | 2.0 | 5.0 | 0.00 | 0.00 | 0.00 | 80 | 988.8 |
| 20260904233703 | 69 | 333 | 2.0 | 5.0 | 0.00 | 0.00 | 0.00 | 79 | 988.8 |
| 20260904232203 | 69 | 51 | 1.0 | 3.0 | 0.00 | 0.00 | 0.00 | 82 | 988.6 |
| 20260904231703 | 70 | 243 | 1.0 | 3.0 | 0.00 | 0.00 | 0.00 | 82 | 988.6 |
| 20260904231203 | 70 | 1 | 1.0 | 2.0 | 0.00 | 0.00 | 0.00 | 82 | 988.6 |
| 20260904230703 | 70 | 343 | 1.0 | 2.0 | 0.00 | 0.00 | 0.00 | 81 | 988.6 |
| 20260904230203 | 70 | 339 | 1.0 | 2.0 | 0.00 | 0.00 | 0.00 | 82 | 988.7 |
| 20260904225204 | 70 | 330 | 1.0 | 3.0 | 0.00 | 0.00 | 0.00 | 82 | 988.6 |
| 20260904224703 | 70 | 306 | 1.0 | 2.0 | 0.00 | 0.00 | 0.00 | 82 | 988.6 |
| 20260904224203 | 71 | 234 | 1.0 | 2.0 | 0.00 | 0.00 | 0.00 | 81 | 988.6 |
| 20260904223703 | 71 | 326 | 1.0 | 3.0 | 0.00 | 0.00 | 0.00 | 80 | 988.6 |
| 20260904223204 | 71 | 314 | 1.0 | 2.0 | 0.00 | 0.00 | 0.00 | 80 | 988.6 |
| 20260904222704 | 72 | 311 | 1.0 | 2.0 | 0.00 | 0.00 | 0.00 | 79 | 988.6 |
| 20260904222203 | 72 | 312 | 2.0 | 2.0 | 0.00 | 0.00 | 0.00 | 78 | 988.6 |
| 20260904221703 | 73 | 46 | 1.0 | 2.0 | 0.00 | 0.00 | 0.00 | 78 | 988.6 |
| 20260904221203 | 73 | 217 | 1.0 | 2.0 | 0.00 | 0.00 | 0.00 | 75 | 988.6 |
| 20260904220704 | 74 | 4 | 1.0 | 2.0 | 0.00 | 0.00 | 0.00 | 76 | 988.6 |
| 20260904220203 | 74 | 358 | 0.0 | 1.0 | 0.00 | 0.00 | 0.00 | 76 | 988.6 |
| 20260904215203 | 75 | 31 | 0.0 | 1.0 | 0.00 | 0.00 | 0.00 | 74 | 988.5 |
| 20260904214703 | 75 | 331 | 0.0 | 1.0 | 0.00 | 0.00 | 0.00 | 73 | 988.6 |
| 20260904214203 | 75 | 8 | 0.0 | 1.0 | 0.00 | 0.00 | 0.00 | 73 | 988.6 |
| 20260904213703 | 75 | 317 | 0.0 | 1.0 | 0.00 | 0.00 | 0.00 | 73 | 988.6 |
| 20260904213204 | 75 | 222 | 0.0 | 1.0 | 0.00 | 0.00 | 0.00 | 74 | 988.5 |
| 20260904212704 | 75 | 333 | 0.0 | 1.0 | 0.00 | 0.00 | 0.00 | 73 | 988.6 |
| 20260904212204 | 76 | 166 | 0.0 | 1.0 | 0.00 | 0.00 | 0.00 | 73 | 988.6 |
| 20260904211704 | 76 | 31 | 0.0 | 1.0 | 0.00 | 0.00 | 0.00 | 72 | 988.6 |
| 20260904211203 | 76 | 9 | 1.0 | 1.0 | 0.00 | 0.00 | 0.00 | 66 | 988.8 |
| 20260904210704 | 76 | 222 | 1.0 | 1.0 | 0.00 | 0.00 | 0.00 | 68 | 988.8 |
| 20260904210204 | 76 | 327 | 0.0 | 1.0 | 0.00 | 0.00 | 0.00 | 72 | 988.8 |
| 20260904204703 | 76 | 337 | 0.0 | 1.0 | 0.00 | 0.00 | 0.00 | 71 | 988.7 |
| 20260904204203 | 76 | 6 | 0.0 | 1.0 | 0.00 | 0.00 | 0.00 | 68 | 988.7 |
| 20260904202704 | 77 | 14 | 0.0 | 2.0 | 0.00 | 0.00 | 0.00 | 63 | 988.8 |
| 20260904202203 | 77 | 288 | 1.0 | 2.0 | 0.00 | 0.00 | 0.00 | 62 | 988.8 |
| 20260904201703 | 77 | 281 | 1.0 | 2.0 | 0.00 | 0.00 | 0.00 | 62 | 988.8 |
| 20260904200203 | 78 | 298 | 2.0 | 3.0 | 0.00 | 0.00 | 0.00 | 60 | 988.8 |
| 20260904195203 | 77 | 7 | 1.0 | 5.0 | 0.00 | 0.00 | 0.00 | 61 | 988.7 |
| 20260904194704 | 78 | 273 | 1.0 | 6.0 | 0.00 | 0.00 | 0.00 | 61 | 988.8 |
| 20260904194203 | 78 | 358 | 2.0 | 3.0 | 0.00 | 0.00 | 0.00 | 59 | 988.8 |
| 20260904193204 | 78 | 263 | 0.0 | 2.0 | 0.00 | 0.00 | 0.00 | 60 | 988.7 |
| 20260904192206 | 79 | 301 | 1.0 | 1.0 | 0.00 | 0.00 | 0.00 | 58 | 988.8 |
| 20260904191704 | 79 | 318 | 1.0 | 2.0 | 0.00 | 0.00 | 0.00 | 58 | 988.8 |
| 20260904191203 | 80 | 11 | 1.0 | 3.0 | 0.00 | 0.00 | 0.00 | 57 | 988.8 |
| 20260904190704 | 80 | 339 | 1.0 | 2.0 | 0.00 | 0.00 | 0.00 | 58 | 989.0 |
| 20260904190204 | 81 | 312 | 1.0 | 3.0 | 0.00 | 0.00 | 0.00 | 56 | 989.0 |
| 20260904185703 | 82 | 279 | 0.0 | 2.0 | 0.00 | 0.00 | 0.00 | 54 | 989.0 |
| 20260904185204 | 82 | 283 | 1.0 | 2.0 | 0.00 | 0.00 | 0.00 | 53 | 989.1 |
| 20260904184704 | 81 | 331 | 2.0 | 3.0 | 0.00 | 0.00 | 0.00 | 54 | 989.1 |
| 20260904184203 | 80 | 355 | 0.0 | 2.0 | 0.00 | 0.00 | 0.00 | 56 | 989.1 |
| 20260904183704 | 81 | 358 | 3.0 | 3.0 | 0.00 | 0.00 | 0.00 | 55 | 989.2 |
| 20260904182704 | 81 | 291 | 1.0 | 6.0 | 0.00 | 0.00 | 0.00 | 52 | 989.1 |
| 20260904182204 | 79 | 314 | 1.0 | 3.0 | 0.00 | 0.00 | 0.00 | 58 | 989.0 |
| 20260904181704 | 80 | 263 | 2.0 | 5.0 | 0.00 | 0.00 | 0.00 | 54 | 989.1 |
| 20260904181203 | 81 | 245 | 2.0 | 3.0 | 0.00 | 0.00 | 0.00 | 55 | 989.1 |
| 20260904180703 | 81 | 289 | 2.0 | 5.0 | 0.00 | 0.00 | 0.00 | 52 | 989.0 |
| 20260904180203 | 80 | 336 | 1.0 | 3.0 | 0.00 | 0.00 | 0.00 | 56 | 989.1 |
| 20260904175704 | 81 | 276 | 2.0 | 7.0 | 0.00 | 0.00 | 0.00 | 56 | 989.2 |
| 20260904175204 | 83 | 32 | 3.0 | 6.0 | 0.00 | 0.00 | 0.00 | 54 | 989.0 |
| 20260904174703 | 84 | 304 | 3.0 | 7.0 | 0.00 | 0.00 | 0.00 | 51 | 989.2 |
| 20260904174203 | 83 | 265 | 0.0 | 2.0 | 0.00 | 0.00 | 0.00 | 53 | 989.3 |
| 20260904173704 | 82 | 216 | 0.0 | 2.0 | 0.00 | 0.00 | 0.00 | 55 | 989.1 |
| 20260904173204 | 83 | 311 | 1.0 | 3.0 | 0.00 | 0.00 | 0.00 | 54 | 989.1 |
| 20260904171204 | 80 | 255 | 1.0 | 5.0 | 0.00 | 0.00 | 0.00 | 55 | 989.0 |
| 20260904170703 | 79 | 351 | 2.0 | 3.0 | 0.00 | 0.00 | 0.00 | 57 | 989.0 |
| 20260904170203 | 80 | 315 | 2.0 | 3.0 | 0.00 | 0.00 | 0.00 | 57 | 989.0 |
| 20260904165703 | 81 | 279 | 1.0 | 3.0 | 0.00 | 0.00 | 0.00 | 55 | 989.1 |
| 20260904164703 | 80 | 0 | 2.0 | 3.0 | 0.00 | 0.00 | 0.00 | 57 | 989.3 |
| 20260904164203 | 81 | 239 | 2.0 | 3.0 | 0.00 | 0.00 | 0.00 | 55 | 989.3 |
| 20260904163704 | 82 | 314 | 1.0 | 3.0 | 0.00 | 0.00 | 0.00 | 55 | 989.4 |
| 20260904162704 | 81 | 247 | 2.0 | 3.0 | 0.00 | 0.00 | 0.00 | 55 | 989.4 |
| 20260904162204 | 81 | 275 | 2.0 | 5.0 | 0.00 | 0.00 | 0.00 | 54 | 989.5 |
| 20260904161703 | 80 | 279 | 2.0 | 7.0 | 0.00 | 0.00 | 0.00 | 55 | 989.4 |
| 20260904161203 | 80 | 266 | 3.0 | 7.0 | 0.00 | 0.00 | 0.00 | 56 | 989.5 |
| 20260904160704 | 80 | 271 | 1.0 | 3.0 | 0.00 | 0.00 | 0.00 | 57 | 989.6 |
| 20260904160204 | 79 | 342 | 1.0 | 3.0 | 0.00 | 0.00 | 0.00 | 58 | 989.7 |
| 20260904155703 | 78 | 265 | 2.0 | 3.0 | 0.00 | 0.00 | 0.00 | 59 | 989.7 |
| 20260904155203 | 77 | 256 | 1.0 | 5.0 | 0.00 | 0.00 | 0.00 | 59 | 989.8 |
| 20260904154203 | 75 | 323 | 2.0 | 3.0 | 0.00 | 0.00 | 0.00 | 65 | 989.9 |
| 20260904153704 | 75 | 346 | 2.0 | 5.0 | 0.00 | 0.00 | 0.00 | 66 | 990.0 |
| 20260904152704 | 75 | 258 | 1.0 | 3.0 | 0.00 | 0.00 | 0.00 | 64 | 989.9 |
| 20260904151703 | 74 | 342 | 2.0 | 6.0 | 0.00 | 0.00 | 0.00 | 68 | 989.8 |
| 20260904151203 | 73 | 279 | 1.0 | 5.0 | 0.00 | 0.00 | 0.00 | 69 | 989.8 |
| 20260904150703 | 73 | 255 | 1.0 | 2.0 | 0.00 | 0.00 | 0.00 | 71 | 989.8 |
| 20260904150203 | 72 | 331 | 1.0 | 3.0 | 0.00 | 0.00 | 0.00 | 72 | 989.9 |
| 20260904145703 | 72 | 138 | 1.0 | 3.0 | 0.00 | 0.00 | 0.00 | 71 | 989.9 |
| 20260904145204 | 72 | 137 | 2.0 | 3.0 | 0.00 | 0.00 | 0.00 | 73 | 989.9 |
| 20260904144704 | 72 | 302 | 2.0 | 3.0 | 0.00 | 0.00 | 0.00 | 72 | 990.0 |
| 20260904144203 | 72 | 349 | 1.0 | 3.0 | 0.00 | 0.00 | 0.00 | 74 | 990.0 |
| 20260904143703 | 72 | 297 | 2.0 | 3.0 | 0.00 | 0.00 | 0.00 | 75 | 990.0 |
| 20260904143204 | 71 | 332 | 1.0 | 2.0 | 0.00 | 0.00 | 0.00 | 76 | 990.0 |
| 20260904142703 | 71 | 355 | 1.0 | 2.0 | 0.00 | 0.00 | 0.00 | 77 | 990.0 |
| 20260904142205 | 70 | 310 | 1.0 | 2.0 | 0.00 | 0.00 | 0.00 | 79 | 990.0 |
| 20260904141704 | 70 | 200 | 1.0 | 2.0 | 0.00 | 0.00 | 0.00 | 77 | 990.0 |
| 20260904141207 | 70 | 319 | 1.0 | 3.0 | 0.00 | 0.00 | 0.00 | 80 | 989.9 |
| 20260904140703 | 69 | 296 | 3.0 | 5.0 | 0.00 | 0.00 | 0.00 | 79 | 989.9 |
| 20260904134703 | 68 | 296 | 3.0 | 6.0 | 0.00 | 0.00 | 0.00 | 85 | 989.9 |
| 20260904134203 | 67 | 325 | 2.0 | 6.0 | 0.00 | 0.00 | 0.00 | 85 | 989.8 |
| 20260904133703 | 67 | 274 | 3.0 | 7.0 | 0.00 | 0.00 | 0.00 | 85 | 989.9 |
| 20260904133203 | 67 | 301 | 2.0 | 6.0 | 0.00 | 0.00 | 0.00 | 88 | 989.9 |
| 20260904132703 | 67 | 271 | 3.0 | 6.0 | 0.00 | 0.00 | 0.00 | 87 | 989.9 |
| 20260904132203 | 66 | 296 | 3.0 | 12.0 | 0.00 | 0.00 | 0.00 | 88 | 989.9 |
| 20260904131703 | 66 | 208 | 2.0 | 7.0 | 0.00 | 0.00 | 0.00 | 88 | 989.9 |
| 20260904131203 | 66 | 241 | 3.0 | 10.0 | 0.00 | 0.00 | 0.00 | 88 | 990.0 |
| 20260904130703 | 65 | 306 | 3.0 | 8.0 | 0.00 | 0.00 | 0.00 | 90 | 990.0 |
| 20260904130203 | 65 | 245 | 3.0 | 8.0 | 0.00 | 0.00 | 0.00 | 91 | 989.9 |
| 20260904125704 | 64 | 249 | 2.0 | 10.0 | 0.00 | 0.00 | 0.00 | 91 | 989.9 |
| 20260904125203 | 64 | 251 | 3.0 | 8.0 | 0.00 | 0.00 | 0.00 | 93 | 989.9 |
| 20260904124704 | 63 | 250 | 3.0 | 8.0 | 0.00 | 0.00 | 0.00 | 94 | 989.9 |
| 20260904124203 | 63 | 263 | 2.0 | 8.0 | 0.00 | 0.00 | 0.00 | 94 | 990.0 |
| 20260904123704 | 62 | 195 | 2.0 | 6.0 | 0.00 | 0.00 | 0.00 | 95 | 990.0 |
| 20260904123203 | 61 | 214 | 3.0 | 8.0 | 0.00 | 0.00 | 0.00 | 97 | 990.0 |
| 20260904122703 | 61 | 225 | 3.0 | 7.0 | 0.00 | 0.00 | 0.00 | 98 | 990.0 |
| 20260904122203 | 61 | 226 | 3.0 | 7.0 | 0.00 | 0.00 | 0.00 | 98 | 990.1 |
| 20260904121703 | 61 | 190 | 3.0 | 5.0 | 0.00 | 0.00 | 0.00 | 98 | 990.1 |
| 20260904120703 | 60 | 237 | 2.0 | 3.0 | 0.00 | 0.00 | 0.00 | 99 | 990.1 |
| 20260904120203 | 60 | 225 | 3.0 | 5.0 | 0.00 | 0.00 | 0.00 | 99 | 990.0 |
| 20260904115703 | 59 | 19 | 2.0 | 6.0 | 0.00 | 0.00 | 0.00 | 99 | 990.1 |
| 20260904114703 | 59 | 154 | 1.0 | 3.0 | 0.00 | 0.00 | 0.00 | 99 | 990.0 |
| 20260904114203 | 59 | 188 | 1.0 | 2.0 | 0.00 | 0.00 | 0.00 | 99 | 990.0 |
| 20260904113203 | 59 | 164 | 1.0 | 2.0 | 0.00 | 0.00 | 0.00 | 99 | 989.9 |
| 20260904112703 | 58 | 91 | 1.0 | 2.0 | 0.00 | 0.00 | 0.00 | 99 | 989.9 |
| 20260904112203 | 58 | 101 | 1.0 | 3.0 | 0.00 | 0.00 | 0.00 | 99 | 989.8 |
| 20260904111703 | 58 | 100 | 1.0 | 2.0 | 0.00 | 0.00 | 0.00 | 99 | 989.6 |
| 20260904111203 | 58 | 73 | 1.0 | 2.0 | 0.00 | 0.00 | 0.00 | 99 | 989.6 |
| 20260904110703 | 59 | 120 | 1.0 | 2.0 | 0.00 | 0.00 | 0.00 | 99 | 989.6 |
| 20260904110204 | 59 | 173 | 1.0 | 2.0 | 0.00 | 0.00 | 0.00 | 99 | 989.6 |
| 20260904105704 | 59 | 103 | 1.0 | 2.0 | 0.00 | 0.00 | 0.00 | 99 | 989.5 |
| 20260904105203 | 58 | 156 | 1.0 | 2.0 | 0.00 | 0.00 | 0.00 | 99 | 989.4 |
| 20260904104704 | 58 | 150 | 1.0 | 3.0 | 0.00 | 0.00 | 0.00 | 99 | 989.4 |
| 20260904104203 | 58 | 169 | 2.0 | 3.0 | 0.00 | 0.00 | 0.00 | 99 | 989.3 |
| 20260904103703 | 59 | 124 | 2.0 | 3.0 | 0.00 | 0.00 | 0.00 | 99 | 989.4 |
| 20260904103205 | 59 | 8 | 2.0 | 3.0 | 0.00 | 0.00 | 0.00 | 99 | 989.4 |
| 20260904102703 | 59 | 163 | 1.0 | 2.0 | 0.00 | 0.00 | 0.00 | 99 | 989.4 |
| 20260904102204 | 59 | 148 | 1.0 | 3.0 | 0.00 | 0.00 | 0.00 | 99 | 989.3 |
| 20260904101703 | 59 | 77 | 2.0 | 3.0 | 0.00 | 0.00 | 0.00 | 99 | 989.3 |
| 20260904101203 | 59 | 138 | 1.0 | 2.0 | 0.00 | 0.00 | 0.00 | 99 | 989.3 |
| 20260904100703 | 59 | 93 | 1.0 | 2.0 | 0.00 | 0.00 | 0.00 | 99 | 989.3 |
| 20260904100203 | 59 | 190 | 1.0 | 3.0 | 0.00 | 0.00 | 0.00 | 99 | 989.3 |
| 20260904095703 | 59 | 187 | 1.0 | 2.0 | 0.00 | 0.00 | 0.00 | 99 | 989.2 |
| 20260904094704 | 59 | 136 | 1.0 | 3.0 | 0.00 | 0.00 | 0.00 | 99 | 989.1 |
| 20260904094204 | 59 | 210 | 1.0 | 3.0 | 0.00 | 0.00 | 0.00 | 99 | 989.1 |
| 20260904093704 | 59 | 98 | 1.0 | 2.0 | 0.00 | 0.00 | 0.00 | 99 | 989.0 |
| 20260904093203 | 59 | 84 | 1.0 | 2.0 | 0.00 | 0.00 | 0.00 | 98 | 988.9 |
| 20260904092703 | 59 | 155 | 1.0 | 2.0 | 0.00 | 0.00 | 0.00 | 98 | 988.9 |
| 20260904092203 | 59 | 67 | 1.0 | 2.0 | 0.00 | 0.00 | 0.00 | 98 | 988.9 |
| 20260904091703 | 59 | 184 | 1.0 | 2.0 | 0.00 | 0.00 | 0.00 | 98 | 988.9 |
| 20260904091204 | 60 | 115 | 1.0 | 2.0 | 0.00 | 0.00 | 0.00 | 97 | 988.8 |
| 20260904090703 | 60 | 186 | 1.0 | 2.0 | 0.00 | 0.00 | 0.00 | 98 | 988.8 |
| 20260904090203 | 60 | 161 | 1.0 | 2.0 | 0.00 | 0.00 | 0.00 | 98 | 988.7 |
| 20260904085703 | 60 | 64 | 1.0 | 3.0 | 0.00 | 0.00 | 0.00 | 98 | 988.7 |
| 20260904085204 | 60 | 176 | 1.0 | 2.0 | 0.00 | 0.00 | 0.00 | 98 | 988.7 |
| 20260904084704 | 60 | 287 | 1.0 | 2.0 | 0.00 | 0.00 | 0.00 | 97 | 988.8 |
| 20260904084204 | 60 | 224 | 2.0 | 3.0 | 0.00 | 0.00 | 0.00 | 97 | 988.8 |
| 20260904083704 | 60 | 260 | 1.0 | 3.0 | 0.00 | 0.00 | 0.00 | 97 | 988.8 |